Hannover, Germany

7:30 PM CET on January 25, 2015 (GMT +0100)
Hannover | Change Station
CLOSE
Current Station
Personal Weather Station
Location: Wedemark,
Elevation: 210 ft
Nearby Weather Stations

Elev 210 ft 52.52 °N, 9.75 °E | Updated 29 minutes ago

Rain
Rain
37.2 °F
Feels Like 37 °F
N
2.3
Wind Variable Wind from WSW
Gusts 6.0 mph

Today
High -- | Low -- °F
--% Chance of Precip.
Yesterday
High -- | Low -- °F
Precip. -- in
8:13 AM 4:53 PM
Waxing Crescent, 34% visible
Pressure 30.30 in
Visibility 4.3 miles
Clouds Scattered Clouds 400 ft
Mostly Cloudy 800 ft
Windchill 37 °F
Dew Point 37 °F
Humidity 98%
Rainfall 0.24 in
Snow Depth Not available.
UV 0.0 out of 12
Pollen Not available.
Air Quality Not available.
Flu Activity Not available.
METAR EDDV 251820Z 25005KT 220V280 7000 SCT004 BKN008 03/02 Q1026 TEMPO 4000

More Conditions Fewer Conditions

Pressure 30.30 in
Visibility 4.3 miles
Clouds Scattered Clouds 400 ft
Mostly Cloudy 800 ft
Windchill 37 °F
Dew Point 37 °F
Humidity 98%
Rainfall 0.24 in
Snow Depth Not available.
UV 0.0 out of 12
Pollen Not available.
Air Quality Not available.
Flu Activity Not available.
METAR EDDV 251820Z 25005KT 220V280 7000 SCT004 BKN008 03/02 Q1026 TEMPO 4000

More Conditions Fewer Conditions

10-Day Weather Forecast

Almanac

Astronomy

Jan. 25, 2015 Rise Set
Actual Time
Civil Twilight
Nautical Twilight
Astronomical Twilight
Moon
Length of Visible Light
Length of Day
Tomorrow will be .
, % of the Moon is Illuminated

Today's Extremes

Country Highs Country Lows

Community

WunderPhotos

Upload Photos

1,790,015 photos uploaded!

WunderBlogs® & News

Nearby

Air Quality

  Air Quality AQ Index Pollutant
Not available.

Snow Depth

Station Depth Elevation

Earthquake Activity

City Distance Mag. Time & Date
Minimum magnitude displayed is 2.5.

Coastal Water Temperatures

Place Temperature

Nearby Weather Stations